This is the latest recevied weather packets stored in our database for station/object KI5MKI. If no packets are shown the sender has not sent any weather packets the latest 10 day(s).
| Time | Temp. | Humidity | Pressure | Rain* | Wind** | Luminosity | Snow |
|---|---|---|---|---|---|---|---|
| 1777160980 | 26.67° C | 76% | 1006.2 hPa | 0 mm | - | 17 W/m² | - |
| 1777160675 | 26.67° C | 76% | 1006 hPa | 0 mm | - | 25 W/m² | - |
| 1777160371 | 27.22° C | 75% | 1006 hPa | 0 mm | - | 37 W/m² | - |
| 1777160068 | 27.22° C | 75% | 1006 hPa | 0 mm | - | 51 W/m² | - |
| 1777159763 | 27.22° C | 75% | 1006 hPa | 0 mm | - | 65 W/m² | - |
| 1777159460 | 27.22° C | 74% | 1006.1 hPa | 0 mm | - | 74 W/m² | - |
| 1777159156 | 27.22° C | 73% | 1006.1 hPa | 0 mm | - | 76 W/m² | - |
| 1777158853 | 27.78° C | 73% | 1005.8 hPa | 0 mm | - | 71 W/m² | - |
| 1777158551 | 27.78° C | 71% | 1005.6 hPa | 0 mm | - | 110 W/m² | - |
| 1777158247 | 28.33° C | 71% | 1005.8 hPa | 0 mm | - | 134 W/m² | - |
| 1777157943 | 28.33° C | 69% | 1005.8 hPa | 0 mm | - | 170 W/m² | - |
| 1777157639 | 28.89° C | 70% | 1006 hPa | 0 mm | - | 217 W/m² | - |
| 1777157336 | 28.89° C | 69% | 1005.9 hPa | 0 mm | - | 359 W/m² | - |
| 1777157035 | 28.89° C | 70% | 1006 hPa | 0 mm | - | 358 W/m² | - |
| 1777156730 | 28.89° C | 70% | 1006.1 hPa | 0 mm | - | 243 W/m² | - |
| 1777156427 | 28.33° C | 69% | 1006 hPa | 0 mm | - | 302 W/m² | - |
| 1777156123 | 28.33° C | 69% | 1006.3 hPa | 0 mm | - | 336 W/m² | - |
| 1777155821 | 28.33° C | 70% | 1006.2 hPa | 0 mm | - | 377 W/m² | - |
| 1777155520 | 28.33° C | 69% | 1006.2 hPa | 0 mm | - | 256 W/m² | - |
| 1777155218 | 28.33° C | 69% | 1006.4 hPa | 0 mm | - | 240 W/m² | - |
| 1777154915 | 28.33° C | 68% | 1006.4 hPa | 0 mm | - | 247 W/m² | - |
| 1777154611 | 28.33° C | 70% | 1006.4 hPa | 0 mm | - | 451 W/m² | - |
| 1777154308 | 28.33° C | 71% | 1006.2 hPa | 0 mm | - | 508 W/m² | - |
| 1777154004 | 28.33° C | 70% | 1006.4 hPa | 0 mm | - | 604 W/m² | - |
| 1777153700 | 28.89° C | 70% | 1006.3 hPa | 0 mm | - | 443 W/m² | - |
* Rain latest hour (hover to see other rain measurements)
** Current wind speed in m/s (hover to see current wind gust speed)